DLH2FF EDDF-LIMC

Flight info

Callsign DLH2FF
Flight time 0h 50m
Altitude 33000
Route ANEKI2L ANEKI Y163 NATOR DCT TRA DCT RIPUS DCT GERSA DCT SOSON DCT DEGAD Z424 RIXUV
Aircraft A320/M-SDE2E3FGIJ1LORWXYZ/HB1

Departure

Time 2026-04-15 14:17
Airport Frankfurt Main Airport (EDDF)

Arrival

Time 2026-04-15 15:08
Airport Milan Malpensa International Airport (LIMC)
Time Latitude Longitude Altitude Speed Heading
2026-04-15 13:47 50.04416 8.56277 344 ft 0 kts 165°
2026-04-15 14:06 50.04420 8.56275 342 ft 3 kts 165°
2026-04-15 14:06 50.04446 8.56264 352 ft 4 kts 165°
2026-04-15 14:06 50.04470 8.56257 349 ft 4 kts 196°
2026-04-15 14:07 50.04489 8.56278 348 ft 4 kts 244°
2026-04-15 14:07 50.04498 8.56310 350 ft 4 kts 249°
2026-04-15 14:07 50.04507 8.56349 352 ft 4 kts 249°
2026-04-15 14:07 50.04514 8.56377 351 ft 0 kts 249°
2026-04-15 14:10 50.04509 8.56355 353 ft 5 kts 249°
2026-04-15 14:10 50.04493 8.56288 348 ft 9 kts 250°
2026-04-15 14:11 50.04469 8.56185 352 ft 13 kts 250°
2026-04-15 14:11 50.04437 8.56056 349 ft 12 kts 242°
2026-04-15 14:11 50.04355 8.56050 346 ft 14 kts 159°
2026-04-15 14:11 50.04271 8.56054 352 ft 12 kts 219°
2026-04-15 14:12 50.04240 8.55943 352 ft 11 kts 250°
2026-04-15 14:12 50.04213 8.55828 345 ft 11 kts 250°
2026-04-15 14:12 50.04183 8.55704 346 ft 17 kts 248°
2026-04-15 14:12 50.04133 8.55499 348 ft 21 kts 250°
2026-04-15 14:13 50.04081 8.55275 353 ft 23 kts 249°
2026-04-15 14:13 50.04021 8.55030 351 ft 25 kts 250°
2026-04-15 14:13 50.03961 8.54774 352 ft 25 kts 250°
2026-04-15 14:13 50.03899 8.54516 349 ft 25 kts 249°
2026-04-15 14:14 50.03822 8.54284 349 ft 25 kts 233°
2026-04-15 14:14 50.03753 8.54027 350 ft 27 kts 250°
2026-04-15 14:14 50.03690 8.53766 352 ft 26 kts 249°
2026-04-15 14:14 50.03624 8.53493 345 ft 28 kts 249°
2026-04-15 14:15 50.03553 8.53204 347 ft 29 kts 249°
2026-04-15 14:15 50.03479 8.52907 351 ft 30 kts 246°
2026-04-15 14:15 50.03418 8.52673 351 ft 16 kts 250°
2026-04-15 14:15 50.03375 8.52593 346 ft 8 kts 188°
2026-04-15 14:16 50.03361 8.52594 344 ft 0 kts 179°
2026-04-15 14:16 50.03132 8.52595 347 ft 74 kts 179°
2026-04-15 14:17 50.02382 8.52604 344 ft 139 kts 180°
2026-04-15 14:17 50.01268 8.52612 617 ft 167 kts 180°
2026-04-15 14:17 50.00105 8.52610 1424 ft 168 kts 179°
2026-04-15 14:17 49.98867 8.52670 1944 ft 190 kts 176°
2026-04-15 14:18 49.97476 8.52786 2379 ft 210 kts 176°
2026-04-15 14:18 49.95963 8.52909 3004 ft 223 kts 176°
2026-04-15 14:18 49.94406 8.53029 3949 ft 226 kts 176°
2026-04-15 14:18 49.92828 8.53143 4935 ft 228 kts 176°
2026-04-15 14:19 49.91234 8.53253 5931 ft 230 kts 178°
2026-04-15 14:19 49.89619 8.53364 6862 ft 234 kts 178°
2026-04-15 14:19 49.87977 8.53478 7755 ft 238 kts 178°
2026-04-15 14:19 49.86308 8.53593 8646 ft 242 kts 179°
2026-04-15 14:20 49.84609 8.53709 9554 ft 246 kts 179°
2026-04-15 14:20 49.82882 8.53829 10411 ft 251 kts 179°
2026-04-15 14:20 49.81124 8.53951 11246 ft 255 kts 179°
2026-04-15 14:20 49.79341 8.54074 12083 ft 258 kts 179°
2026-04-15 14:21 49.77532 8.54083 12852 ft 266 kts 186°
2026-04-15 14:21 49.75607 8.53838 13205 ft 290 kts 186°
2026-04-15 14:21 49.73519 8.53550 13508 ft 313 kts 187°
2026-04-15 14:21 49.71269 8.53237 13823 ft 334 kts 186°
2026-04-15 14:22 49.68916 8.52917 14412 ft 343 kts 186°
2026-04-15 14:22 49.66520 8.52598 15103 ft 348 kts 186°
2026-04-15 14:22 49.64094 8.52279 15792 ft 352 kts 186°
2026-04-15 14:22 49.61637 8.51958 16488 ft 357 kts 186°
2026-04-15 14:23 49.59150 8.51633 17196 ft 361 kts 186°
2026-04-15 14:23 49.56631 8.51302 17900 ft 365 kts 186°
2026-04-15 14:23 49.54090 8.50966 18577 ft 369 kts 186°
2026-04-15 14:23 49.51516 8.50624 19167 ft 373 kts 187°
2026-04-15 14:24 49.48919 8.50277 19747 ft 377 kts 186°
2026-04-15 14:24 49.46293 8.49933 20338 ft 381 kts 186°
2026-04-15 14:24 49.43641 8.49588 20921 ft 384 kts 186°
2026-04-15 14:24 49.40963 8.49240 21472 ft 388 kts 186°
2026-04-15 14:25 49.38255 8.48890 22021 ft 392 kts 186°
2026-04-15 14:25 49.35521 8.48540 22564 ft 396 kts 186°
2026-04-15 14:25 49.32762 8.48184 23107 ft 400 kts 186°
2026-04-15 14:25 49.30014 8.47826 23637 ft 403 kts 186°
2026-04-15 14:26 49.27204 8.47459 24096 ft 407 kts 186°
2026-04-15 14:26 49.24331 8.47082 24534 ft 411 kts 186°
2026-04-15 14:26 49.21511 8.46713 24945 ft 414 kts 187°
2026-04-15 14:26 49.18628 8.46333 25337 ft 418 kts 186°
2026-04-15 14:27 49.15716 8.45954 25741 ft 422 kts 186°
2026-04-15 14:27 49.12780 8.45575 26153 ft 425 kts 186°
2026-04-15 14:27 49.09818 8.45194 26561 ft 429 kts 186°
2026-04-15 14:27 49.06840 8.44785 26960 ft 431 kts 189°
2026-04-15 14:28 49.03892 8.43904 27352 ft 433 kts 195°
2026-04-15 14:28 49.00945 8.42874 27752 ft 436 kts 195°
2026-04-15 14:28 48.97976 8.41834 28136 ft 440 kts 195°
2026-04-15 14:28 48.94984 8.40788 28521 ft 443 kts 195°
2026-04-15 14:29 48.91966 8.39738 28904 ft 446 kts 195°
2026-04-15 14:29 48.88928 8.38687 29296 ft 449 kts 195°
2026-04-15 14:29 48.85868 8.37626 29677 ft 453 kts 195°
2026-04-15 14:29 48.82788 8.36558 30047 ft 456 kts 195°
2026-04-15 14:30 48.79686 8.35482 30387 ft 459 kts 195°
2026-04-15 14:30 48.76566 8.34397 30680 ft 462 kts 195°
2026-04-15 14:30 48.73430 8.33271 30959 ft 464 kts 195°
2026-04-15 14:30 48.70282 8.32112 31254 ft 467 kts 196°
2026-04-15 14:31 48.67124 8.30942 31558 ft 469 kts 196°
2026-04-15 14:31 48.63946 8.29765 31851 ft 471 kts 196°
2026-04-15 14:31 48.60760 8.28595 32222 ft 471 kts 195°
2026-04-15 14:31 48.57568 8.27434 32653 ft 470 kts 195°
2026-04-15 14:32 48.54392 8.26285 33061 ft 469 kts 195°
2026-04-15 14:32 48.51195 8.25290 33453 ft 470 kts 189°
2026-04-15 14:32 48.47924 8.24987 33857 ft 472 kts 180°
2026-04-15 14:32 48.44648 8.25431 34235 ft 474 kts 172°
2026-04-15 14:33 48.41393 8.26232 34587 ft 473 kts 172°
2026-04-15 14:33 48.38146 8.27028 34936 ft 473 kts 172°
2026-04-15 14:33 48.34901 8.27819 35257 ft 472 kts 172°
2026-04-15 14:33 48.31659 8.28605 35570 ft 472 kts 172°
2026-04-15 14:34 48.28418 8.29386 35893 ft 471 kts 172°
2026-04-15 14:34 48.25227 8.30149 36205 ft 471 kts 172°
2026-04-15 14:34 48.21993 8.30923 36504 ft 470 kts 172°
2026-04-15 14:34 48.18759 8.31700 36811 ft 470 kts 172°
2026-04-15 14:35 48.15535 8.32479 37097 ft 470 kts 172°
2026-04-15 14:35 48.09105 8.34037 37201 ft 466 kts 172°
2026-04-15 14:36 48.03022 8.35513 37202 ft 465 kts 172°
2026-04-15 14:36 47.96637 8.37054 37204 ft 465 kts 172°
2026-04-15 14:37 47.91290 8.38343 37184 ft 465 kts 172°
2026-04-15 14:37 47.84901 8.39883 37203 ft 465 kts 172°
2026-04-15 14:38 47.78507 8.41412 37212 ft 465 kts 172°
2026-04-15 14:38 47.72115 8.42930 37221 ft 465 kts 171°
2026-04-15 14:39 47.65703 8.44346 37211 ft 466 kts 173°
2026-04-15 14:39 47.59240 8.45299 37206 ft 467 kts 175°
2026-04-15 14:40 47.52756 8.46107 37209 ft 468 kts 175°
2026-04-15 14:40 47.46275 8.47003 37201 ft 468 kts 174°
2026-04-15 14:41 47.39833 8.47971 37212 ft 468 kts 174°
2026-04-15 14:41 47.33346 8.48947 37216 ft 469 kts 174°
2026-04-15 14:42 47.26850 8.49891 37206 ft 469 kts 174°
2026-04-15 14:42 47.20356 8.50832 37206 ft 469 kts 174°
2026-04-15 14:43 47.13857 8.51770 37218 ft 469 kts 174°
2026-04-15 14:43 47.07353 8.52714 36610 ft 469 kts 174°
2026-04-15 14:43 47.04106 8.53186 35891 ft 470 kts 174°
2026-04-15 14:44 47.00848 8.53659 35152 ft 471 kts 174°
2026-04-15 14:44 46.97582 8.54133 34512 ft 470 kts 174°
2026-04-15 14:44 46.94338 8.54604 33968 ft 467 kts 174°
2026-04-15 14:44 46.91120 8.55073 33416 ft 463 kts 174°
2026-04-15 14:45 46.87928 8.55535 32867 ft 459 kts 174°
2026-04-15 14:45 46.84759 8.55992 32344 ft 455 kts 174°
2026-04-15 14:45 46.81621 8.56442 31798 ft 452 kts 174°
2026-04-15 14:45 46.78504 8.56884 31302 ft 448 kts 174°
2026-04-15 14:46 46.75410 8.57318 30775 ft 446 kts 174°
2026-04-15 14:46 46.72328 8.57624 30257 ft 442 kts 182°
2026-04-15 14:46 46.69271 8.57281 29685 ft 438 kts 186°
2026-04-15 14:46 46.66247 8.56884 29132 ft 434 kts 186°
2026-04-15 14:47 46.63250 8.56482 28603 ft 431 kts 186°
2026-04-15 14:47 46.60274 8.56082 28116 ft 427 kts 186°
2026-04-15 14:47 46.57331 8.55689 27613 ft 423 kts 186°
2026-04-15 14:47 46.54413 8.55300 27130 ft 419 kts 186°
2026-04-15 14:48 46.51524 8.54915 26676 ft 415 kts 186°
2026-04-15 14:48 46.48661 8.54531 26207 ft 411 kts 186°
2026-04-15 14:48 46.45825 8.54150 25743 ft 407 kts 185°
2026-04-15 14:48 46.43010 8.53877 25267 ft 403 kts 178°
2026-04-15 14:49 46.40233 8.54194 24820 ft 399 kts 174°
2026-04-15 14:49 46.37513 8.54553 24350 ft 396 kts 174°
2026-04-15 14:49 46.34780 8.54916 23935 ft 393 kts 174°
2026-04-15 14:49 46.32071 8.55277 23468 ft 390 kts 175°
2026-04-15 14:50 46.29379 8.55640 22958 ft 387 kts 174°
2026-04-15 14:50 46.26713 8.56003 22523 ft 383 kts 174°
2026-04-15 14:50 46.24072 8.56364 22078 ft 379 kts 174°
2026-04-15 14:50 46.21455 8.56721 21611 ft 377 kts 174°
2026-04-15 14:51 46.18857 8.57076 21164 ft 374 kts 174°
2026-04-15 14:51 46.16277 8.57427 20768 ft 371 kts 174°
2026-04-15 14:51 46.13721 8.57769 20369 ft 367 kts 174°
2026-04-15 14:51 46.11185 8.58104 19961 ft 365 kts 174°
2026-04-15 14:52 46.08665 8.58438 19556 ft 362 kts 174°
2026-04-15 14:52 46.06171 8.58769 19116 ft 359 kts 174°
2026-04-15 14:52 46.03690 8.59101 18751 ft 356 kts 174°
2026-04-15 14:52 46.01232 8.59433 18356 ft 353 kts 174°
2026-04-15 14:53 45.98796 8.59760 17942 ft 351 kts 174°
2026-04-15 14:53 45.96374 8.60085 17518 ft 348 kts 174°
2026-04-15 14:53 45.93973 8.60409 17098 ft 346 kts 174°
2026-04-15 14:53 45.91604 8.60844 16805 ft 340 kts 166°
2026-04-15 14:54 45.89401 8.61915 16609 ft 331 kts 153°
2026-04-15 14:54 45.87457 8.63624 16300 ft 326 kts 140°
2026-04-15 14:54 45.85705 8.65667 15955 ft 324 kts 140°
2026-04-15 14:54 45.83959 8.67700 15636 ft 322 kts 140°
2026-04-15 14:55 45.82224 8.69710 15289 ft 321 kts 140°
2026-04-15 14:55 45.80494 8.71711 14979 ft 318 kts 140°
2026-04-15 14:55 45.78771 8.73701 14633 ft 318 kts 140°
2026-04-15 14:55 45.77053 8.75681 14317 ft 316 kts 141°
2026-04-15 14:56 45.75206 8.77360 14055 ft 314 kts 151°
2026-04-15 14:56 45.73287 8.78832 13712 ft 312 kts 151°
2026-04-15 14:56 45.71380 8.80295 13362 ft 310 kts 151°
2026-04-15 14:56 45.69486 8.81748 13010 ft 308 kts 151°
2026-04-15 14:57 45.67598 8.83197 12639 ft 308 kts 151°
2026-04-15 14:57 45.65738 8.84627 12488 ft 299 kts 151°
2026-04-15 14:57 45.63931 8.86013 12358 ft 290 kts 151°
2026-04-15 14:57 45.62163 8.87325 12191 ft 284 kts 156°
2026-04-15 14:58 45.60282 8.88106 11909 ft 282 kts 168°
2026-04-15 14:58 45.58355 8.88627 11601 ft 281 kts 169°
2026-04-15 14:58 45.56446 8.89142 11321 ft 277 kts 169°
2026-04-15 14:58 45.54565 8.89651 10812 ft 274 kts 168°
2026-04-15 14:59 45.52690 8.90161 10245 ft 274 kts 168°
2026-04-15 14:59 45.50821 8.90671 9678 ft 272 kts 168°
2026-04-15 14:59 45.48983 8.91173 9222 ft 264 kts 168°
2026-04-15 14:59 45.47212 8.91654 8843 ft 255 kts 168°
2026-04-15 15:00 45.45476 8.92126 8351 ft 254 kts 168°
2026-04-15 15:00 45.43752 8.92591 7878 ft 250 kts 168°
2026-04-15 15:00 45.42050 8.93050 7425 ft 248 kts 167°
2026-04-15 15:00 45.40359 8.93505 6925 ft 247 kts 167°
2026-04-15 15:01 45.38655 8.93710 6444 ft 248 kts 188°
2026-04-15 15:01 45.37096 8.92760 5979 ft 245 kts 220°
2026-04-15 15:01 45.35957 8.90983 5524 ft 243 kts 232°
2026-04-15 15:01 45.35007 8.89011 5043 ft 241 kts 247°
2026-04-15 15:02 45.34776 8.86709 4842 ft 234 kts 277°
2026-04-15 15:02 45.35082 8.84484 4713 ft 225 kts 289°
2026-04-15 15:02 45.35926 8.82694 4583 ft 217 kts 317°
2026-04-15 15:02 45.37085 8.81344 4353 ft 215 kts 327°
2026-04-15 15:03 45.38391 8.80337 4103 ft 214 kts 341°
2026-04-15 15:03 45.39820 8.79752 3851 ft 214 kts 348°
2026-04-15 15:03 45.41276 8.79329 3607 ft 214 kts 351°
2026-04-15 15:03 45.42737 8.78929 3368 ft 214 kts 350°
2026-04-15 15:04 45.44200 8.78529 3128 ft 216 kts 349°
2026-04-15 15:04 45.45677 8.78125 3009 ft 219 kts 348°
2026-04-15 15:04 45.47167 8.77715 3006 ft 219 kts 348°
2026-04-15 15:04 45.48659 8.77306 3011 ft 219 kts 348°
2026-04-15 15:05 45.50165 8.76893 2935 ft 220 kts 348°
2026-04-15 15:05 45.51616 8.76494 2718 ft 204 kts 348°
2026-04-15 15:05 45.52955 8.76125 2454 ft 189 kts 348°
2026-04-15 15:05 45.54214 8.75779 2216 ft 179 kts 349°
2026-04-15 15:06 45.56429 8.75184 1751 ft 152 kts 349°
2026-04-15 15:06 45.57464 8.74889 1567 ft 153 kts 348°
2026-04-15 15:06 45.58512 8.74603 1371 ft 155 kts 348°
2026-04-15 15:07 45.59558 8.74307 1189 ft 152 kts 349°
2026-04-15 15:07 45.60586 8.74011 990 ft 149 kts 347°
2026-04-15 15:07 45.61607 8.73741 763 ft 149 kts 348°
2026-04-15 15:07 45.62565 8.73475 727 ft 126 kts 349°
2026-04-15 15:08 45.63254 8.73284 738 ft 76 kts 349°
2026-04-15 15:08 45.63602 8.73169 748 ft 40 kts 336°
2026-04-15 15:08 45.63803 8.72939 750 ft 32 kts 308°
2026-04-15 15:08 45.63885 8.72768 754 ft 14 kts 305°
2026-04-15 15:09 45.63928 8.72662 754 ft 11 kts 280°
2026-04-15 15:09 45.63890 8.72590 752 ft 10 kts 195°
2026-04-15 15:09 45.63809 8.72604 749 ft 14 kts 170°
2026-04-15 15:09 45.63701 8.72630 749 ft 18 kts 170°
2026-04-15 15:10 45.63568 8.72673 747 ft 22 kts 168°
2026-04-15 15:10 45.63411 8.72720 745 ft 25 kts 166°
2026-04-15 15:10 45.63233 8.72768 742 ft 27 kts 171°
2026-04-15 15:10 45.63036 8.72819 738 ft 30 kts 169°
2026-04-15 15:11 45.62836 8.72874 734 ft 26 kts 169°
2026-04-15 15:11 45.62649 8.72926 730 ft 27 kts 169°
2026-04-15 15:11 45.62476 8.72888 728 ft 26 kts 217°
2026-04-15 15:11 45.62323 8.72741 727 ft 24 kts 214°
2026-04-15 15:12 45.62258 8.72566 725 ft 22 kts 258°
2026-04-15 15:12 45.62228 8.72358 726 ft 14 kts 260°
2026-04-15 15:12 45.62215 8.72236 727 ft 12 kts 261°
2026-04-15 15:12 45.62245 8.72145 727 ft 10 kts 337°
2026-04-15 15:13 45.62305 8.72128 729 ft 8 kts 349°
2026-04-15 15:13 45.62352 8.72110 730 ft 6 kts 328°
2026-04-15 15:13 45.62356 8.72044 730 ft 10 kts 260°
2026-04-15 15:13 45.62340 8.71934 730 ft 11 kts 259°
2026-04-15 15:14 45.62325 8.71823 731 ft 11 kts 259°
2026-04-15 15:14 45.62346 8.71732 730 ft 9 kts 330°
2026-04-15 15:14 45.62391 8.71718 731 ft 3 kts 350°
2026-04-15 15:14 45.62402 8.71714 731 ft 0 kts 345°
2026-04-15 15:15 45.62403 8.71713 731 ft 0 kts 346°